Location: Heppenheim
(49.6410°N, 8.6370°E)
Time: 16:25:47
(UTC+02:00)

ISS - Pass Details

Date: 08 May 2026
Orbit: 414 x 424 km, 51.6° (Epoch: 10 May)

Event Time Altitude Azimuth Distance (km) Brightness Sun altitude
Exits shadow 02:34:31 53° 72° (ENE) 518 -3.2 -21.4°
Drops below altitude 10° 02:37:16 10° 96° (E) 1,498 -0.8 -21.3°
Sets 02:39:22 0° 99° (E) 2,362 0.2 -21.2°
